Miscellaneous Local Product
Issued by NWS North Platte, NE

Home | Current Version | Previous Version | Text Only | Print | Product List | Glossary On
Versions: 1 2 3 4 5 6 7 8 9 10 11 12 13 14 15 16 17 18 19 20 21 22 23 24 25 26 27 28 29 30 31 32 33 34 35 36 37 38 39 40 41 42 43 44 45 46 47 48 49 50
000
AXUS43 KLBF 211710
MISLBF


WESTERN AND NORTH CENTRAL NEBRASKA HOURLY WEATHER ROUNDUP
NATIONAL WEATHER SERVICE NORTH PLATTE NE
1100 AM CST TUE NOV 21 2017

NOTE: "FAIR" INDICATES FEW OR NO CLOUDS BELOW 12,000 FEET WITH NO
SIGNIFICANT WEATHER AND/OR OBSTRUCTIONS TO VISIBILITY.

NOTE: STATIONS NOT REPORTING VARIABLES SUCH AS SKY/WEATHER OR
PRESSURE ARE PROVIDED BY RAWS AND APRS NETWORKS AND ARE NOT UNDER
NATIONAL WEATHER SERVICE QUALITY CONTROL.

...OBSERVATIONS IN AND NEAR THE EASTERN PANHANDLE OF NEBRASKA...

CITY           SKY/WX    TMP DP  RH WIND       PRES   REMARKS
PINE RIDGE     CLOUDY    31  22  69 NW9       30.33R WCI  23
GORDON         CLOUDY    33  21  61 N16       30.30R WCI  22
CHADRON        CLOUDY    33  25  72 NW10      30.33R WCI  25
ALLIANCE       CLOUDY    33  26  75 N10       30.31R WCI  25
SIDNEY         CLOUDY    36  26  67 N14       30.31R WCI  27
CRESCENT LAKE    N/A     33  23  67 N10G20      N/A  WCI  25
$$

...OBSERVATIONS IN NORTHERN NEBRASKA AND FAR SOUTHERN SOUTH DAKOTA...

CITY           SKY/WX    TMP DP  RH WIND       PRES   REMARKS
WINNER         PTSUNNY   19  11  70 NW21      30.37R WCI   3
VALENTINE      SUNNY     24   7  48 NW18G28   30.33R WCI  10
THEDFORD       SUNNY     34  20  56 N25G32    30.31R WCI  21
AINSWORTH      SUNNY     24  10  55 N18G26    30.33R WCI  10
O`NEILL        SUNNY     22  14  71 NW24      30.32R WCI   5
ORD            SUNNY     33  11  39 NW32G48   30.26R WCI  19
BROKEN BOW     SUNNY     35  18  49 N25G36    30.27R WCI  23
VALENTINE NWR    N/A     27  14  57 NW18G26     N/A  WCI  14
HALSEY           N/A     50  19  30 NW12G22     N/A
BUTTE            N/A     19  10  68 NW18G29     N/A  WCI   4
CHAMBERS         N/A     24   8  49 W7          N/A  WCI  16
EWING            N/A     23  14  69 N18         N/A  WCI   9
$$

...OBSERVATIONS IN SOUTHWEST NEBRASKA AND FAR NORTHEAST COLORADO...

CITY           SKY/WX    TMP DP  RH WIND       PRES   REMARKS
HOLYOKE        FAIR      41  27  56 N18G30    30.30R
IMPERIAL       SUNNY     42  23  46 N21G26    30.29
OGALLALA       MOSUNNY   39  23  51 N20G25    30.31R WCI  30
NORTH PLATTE   SUNNY     39  20  46 N22G30    30.28R WCI  29
MCCOOK         MOSUNNY   42  25  50 N22G28    30.27R
LEXINGTON      SUNNY     40  23  50 N20G28    30.27R WCI  31
STAPLETON        N/A     35  23  61 MISG        N/A
GOTHENBURG       N/A     37  20  50 N15         N/A  WCI  28
CALLAWAY         N/A     36  24  60 N24         N/A  WCI  24
$$

...OBSERVATIONS IN CENTRAL LINCOLN COUNTY AREA...

CITY           SKY/WX    TMP DP  RH WIND       PRES   REMARKS
N.P. AIRPORT   SUNNY     39  20  46 N22G30    30.28R WCI  29
N.P. DOWNTOWN    N/A     36  22  55 N12G20      N/A  WCI  28
N.P. HILLCREST   N/A     36  20  52 NW24        N/A  WCI  24
$$

...SOME OBSERVATIONS FROM AROUND THE REGION...

CITY           SKY/WX    TMP DP  RH WIND       PRES   REMARKS
DENVER         CLOUDY    36  30  79 E10       30.31R WCI  28
LIMON          CLOUDY    38  28  67 N7        30.30R WCI  33
ASPEN          CLOUDY    33  28  81 CALM      30.37R
LARAMIE        PTSUNNY   38  34  85 N10       30.26R WCI  31
CASPER         CLOUDY    31  26  82 CALM      30.30R
CHEYENNE       MOSUNNY   37  31  78 N13       30.28R WCI  29
SCOTTSBLUFF    PTSUNNY   40  27  59 MISG      30.33R
GRAND ISLAND   SUNNY     36  16  44 N30G36    30.25R WCI  23
OMAHA          MOSUNNY   30  13  49 N29G36    30.19R WCI  15
SIOUX FALLS    MOSUNNY   24  11  57 N20G32    30.25R WCI  10
PIERRE         SUNNY     18   6  59 NW20      30.38R WCI   2
RAPID CITY     CLOUDY    26  18  71 NE7       30.33R WCI  18
BISMARCK       FLURRIES  19   7  59 NW20G28   30.40R WCI   3
KANSAS CITY    PTSUNNY   50  29  44 N22G30    30.06R
HILL CITY      SUNNY     45  26  47 N20G30    30.26R
WICHITA        MOSUNNY   52  26  36 N22G35    30.08R
DODGE CITY     SUNNY     49  25  39 N30G38    30.19R
OKLAHOMA CITY  PTSUNNY   56  35  45 N9        29.97R
DALLAS         MOSUNNY   63  51  65 S8        29.91R
AMARILLO       SUNNY     61  21  21 N25G35    30.11R
$$




USA.gov is the U.S. government's official web portal to all federal, state and local government web resources and services.